Regional Weather Roundup
Issued by NWS Jackson, KY

Home | Current Version | Previous Version | Graphics & Text | Print | Product List | Glossary On
Versions: 1 2 3 4 5 6 7 8 9 10 11 12 13 14 15 16 17 18 19 20 21 22 23 24 25 26 27 28 29 30 31 32 33 34 35 36 37 38 39 40 41 42 43 44 45 46 47 48 49 50
000
ASUS43 KJKL 161710
RWRJKL

EAST KENTUCKY HOURLY WEATHER ROUNDUP
NATIONAL WEATHER SERVICE JACKSON KY
1200 PM EST TUE JAN 16 2018

NOTE: "FAIR" INDICATES FEW OR NO CLOUDS BELOW 12,000 FEET WITH
NO SIGNIFICANT WEATHER AND/OR OBSTRUCTIONS TO VISIBILITY.

* THESE REPORTS ARE NOT UNDER NWS QUALITY CONTROL AND MAY NOT
  REPORT WEATHER SUCH AS PRECIPITATION AND FOG.

KYZ079-080-083-085-087-088-110-112-115-119-120-161800
...EASTERN KENTUCKY...

CITY           SKY/WX    TMP DP  RH WIND       PRES   REMARKS
JACKSON        SNOW      17  12  80 NW5       30.43F WCI  10
LONDON         CLOUDY    17  11  77 NW8       30.47S WCI   7
SOMERSET*      LGT SNOW  16  10  79 N7        30.53F WCI   6
MONTICELLO*    FLURRIES  15   9  76 W12       30.54S WCI   2
WILLIAMSBURG*  CLOUDY    19  16  86 CALM      30.47F
MIDDLESBORO*   LGT SNOW  25  20  82 CALM      30.43F
HARLAN APT*    CLOUDY    27  21  80 W6        30.39S WCI  20
PIKE CO APT*   CLOUDY    23  22  95 W8        30.39F WCI  14
BIG SANDY APT* LGT SNOW  23  20  88 NW6       30.42F WCI  16
MOREHEAD APT*  LGT SNOW  14   9  79 NW6       30.50F WCI   5
ASHLAND*       LGT SNOW  21  16  79 NW3       30.50F VSB 1
$$

KYZ035-036-041-042-044-050-067-078-099-161800
...CENTRAL KENTUCKY...

CITY           SKY/WX    TMP DP  RH WIND       PRES   REMARKS
MT STERLING*   LGT SNOW  12   9  85 NW8       30.51F WCI   1
FLEMING/MASON* LGT SNOW  12   8  83 W7        30.50F WCI   1
DANVILLE*      LGT SNOW  12   5  73 NW7       30.53S WCI   2
LEXINGTON      SNOW      10   5  80 W8        30.51F VSB 1/2 WCI  -2
FRANKFORT      CLOUDY     9   1  70 NW9       30.54S WCI  -4
LOUISVILLE       N/A      8  -1  66 W8        30.60F WCI  -4
LEBANON*       SNOW       9   3  78 W9        30.55F VSB 1/2 WCI  -5
GLASGOW*       LGT SNOW  11   6  79 W5        30.58F VSB 1   WCI   3
BOWLING GREEN  CLOUDY    12   4  70 VRB5      30.62F WCI   4
$$

KYZ091>093-OHZ055-061-077-WVZ005-015-034-035-042-161800
...SOUTHERN OHIO/WEST VIRGINIA...

CITY           SKY/WX    TMP DP  RH WIND       PRES   REMARKS
COVINGTON        N/A      7  -1  70 W13       30.51S WCI  -9
COLUMBUS       CLOUDY     8   0  69 W8        30.48F WCI  -4
DAYTON           N/A      4  -3  73 SW14      30.48F WCI -14
WILMINGTON       N/A      7   1  76 W10       30.47F WCI  -8
HUNTINGTON     LGT SNOW  20  14  77 NW8       30.46F VSB 1   WCI  10
CHARLESTON     LGT SNOW  24  19  81 NW13      30.41F WCI  12
BECKLEY        CLOUDY    31  25  78 N3        30.28F
BLUEFIELD      PTSUNNY   35  22  58 SW8       30.28F WCI  29
LOGAN CO APT*  LGT SNOW  27  27 100 CALM      30.34F
$$

VAZ002-007-008-TNZ017-027-036-066-071-161800
...SOUTHWEST VIRGINIA/EAST TENNESSEE...

CITY           SKY/WX    TMP DP  RH WIND       PRES   REMARKS
WISE*          CLOUDY    34  28  80 S5        30.29F WCI  30
JONESVILLE*      N/A     36  28  75 CALM      30.38F
ABINGDON*        N/A     38  27  63 W6        30.32F WCI  34
BRISTOL        CLOUDY    37  26  64 CALM      30.35F
MORRISTOWN*    PTSUNNY   39  27  60 NW7       30.35F WCI  34
SEVIERVILLE*   CLOUDY    39  27  60 VRB6      30.37F WCI  35
KNOXVILLE      CLOUDY    39  29  67 W8        30.38F WCI  33
LAFOLLETTE*    CLOUDY    25  18  74 VRB6G13   30.46S WCI  18
OAK RIDGE      CLOUDY    33  26  75 W6        30.42F WCI  28
CROSSVILLE     LGT SNOW  19  13  77 NW8       30.41F VSB 3/4 WCI   9
NASHVILLE      LGT SNOW  14   7  73 NW8       30.61S VSB 3/4 WCI   3
$$

...KEY TO REMARKS...
VSB - VISIBILITY IN MILES
WCI - WIND CHILL INDEX
HX  - HEAT INDEX

$$



USA.gov is the U.S. government's official web portal to all federal, state and local government web resources and services.